[Iaude] MPEC E36: 2022 EE [a=1.14,e=0.12,i=15.4,H=25.5]

mpec at marsden.cfa.harvard.edu mpec at marsden.cfa.harvard.edu
Wed Mar 2 09:15:26 EST 2022


M.P.E.C. 2022-E36                                 Issued 2022 March 2, 14:14 UT

     The Minor Planet Electronic Circulars contain information on unusual
         minor planets and routine data on comets.  They are published
    on behalf of Division F of the International Astronomical Union by the
          Minor Planet Center, Smithsonian Astrophysical Observatory,
                          Cambridge, MA 02138, U.S.A.

             Prepared using the Tamkin Foundation Computer Network

                              MPC at CFA.HARVARD.EDU
            URL https://www.minorplanetcenter.net/    ISSN 1523-6714

                                    2022 EE                                     


Observations:
     K22E00E* C2022 03 01.28857108 14 31.964-00 06 30.52         18.77wUEE036F52
     K22E00E  C2022 03 01.30008308 14 39.068+00 00 04.78         19.18wUEE036F52
     K22E00E  C2022 03 01.31169408 14 46.210+00 06 43.74         18.87wUEE036F52
     K22E00E  C2022 03 01.42567308 15 57.061+01 12 18.21         18.73GVEE036F52
     K22E00E  C2022 03 01.42630908 15 57.464+01 12 39.97         18.38GVEE036F52
     K22E00E ^C2022 03 01.43934508 16 05.530+01 20 16.11         18.71GVEE036568
     K22E00E ^C2022 03 01.44133308 16 06.814+01 21 24.99         19.71GVEE036568
     K22E00E ^C2022 03 01.44272508 16 07.722+01 22 13.49         18.73GVEE036568
     K22E00E 1C2022 03 01.76679 08 20 35.67 +04 29 07.2          19.2 VVEE036033
     K22E00E 1C2022 03 01.76725 08 20 35.99 +04 29 23.1          19.9 VVEE036033
     K22E00E 1C2022 03 01.76771 08 20 36.29 +04 29 40.1          20.0 VVEE036033
     K22E00E 1C2022 03 01.76822 08 20 36.70 +04 29 58.3          19.8 VVEE036033
     K22E00E 1C2022 03 01.77427208 20 40.73 +04 33 41.6                VEE036246
     K22E00E 1C2022 03 01.77661608 20 42.33 +04 35 03.8                VEE036246
     K22E00E 1C2022 03 01.77671508 20 42.51 +04 35 07.3                VEE036246
     K22E00E 1C2022 03 01.77681508 20 42.76 +04 35 08.5                VEE036246
     K22E00E 1C2022 03 01.77981708 20 44.59 +04 36 57.0                VEE036246
     K22E00E 1C2022 03 01.77991608 20 44.67 +04 37 01.7                VEE036246
     K22E00E 1C2022 03 01.78001508 20 44.64 +04 37 05.0                VEE036246
     K22E00E 1C2022 03 01.78011408 20 44.72 +04 37 08.0                VEE036246
     K22E00E 1C2022 03 01.78021308 20 44.80 +04 37 11.0                VEE036246
     K22E00E KC2022 03 01.78100 08 20 46.09 +04 37 35.1          18.8 GVEE036K74
     K22E00E KC2022 03 01.78794 08 20 50.96 +04 41 41.1          19.0 GVEE036K74
     K22E00E KC2022 03 01.79228 08 20 53.95 +04 44 15.7          19.7 GVEE036K74
     K22E00E KC2022 03 01.80061 08 20 59.80 +04 49 11.6          19.0 GVEE036K74
     K22E00E KC2022 03 01.81681308 21 11.75 +04 59 04.0                VEE036203
     K22E00E KC2022 03 01.82489008 21 17.24 +05 03 50.7          18.9 GVEE036203
     K22E00E KC2022 03 01.82956208 21 20.48 +05 06 35.1                VEE036204
     K22E00E KC2022 03 01.83358508 21 23.19 +05 08 59.6          19.0 GVEE036203
     K22E00E KC2022 03 01.83562308 21 24.62 +05 10 11.0                VEE036204
     K22E00E KC2022 03 01.84167908 21 28.76 +05 13 45.8          18.6 GVEE036204
     K22E00E KC2022 03 01.84499308 21 29.74 +05 15 43.9          18.6 GXEE036595
     K22E00E KC2022 03 01.85084408 21 33.70 +05 19 12.0          18.7 GXEE036595
     K22E00E KC2022 03 01.85661808 21 37.61 +05 22 37.0          18.6 GXEE036595
     K22E00E KC2022 03 01.86264608 21 41.72 +05 26 11.0          18.8 GXEE036595
     K22E00E MC2022 03 01.87760408 21 51.82 +05 35 05.6          19.2 GVEE036L01
     K22E00E KC2022 03 01.87919608 21 52.92 +05 36 02.3          19.3 GVEE036L01
     K22E00E KC2022 03 01.88078208 21 53.98 +05 36 58.7          18.6 GVEE036L01
     K22E00E KC2022 03 01.88244108 21 55.13 +05 37 57.6          18.6 GVEE036L01
     K22E00E KC2022 03 01.88427708 21 56.38 +05 39 03.0          18.9 GVEE036L01
     K22E00E KC2022 03 01.89140308 22 02.57 +05 43 13.8          18.5 GVEE036K38
     K22E00E KC2022 03 01.90594008 22 12.48 +05 51 51.4          18.9 GVEE036K38
     K22E00E KC2022 03 01.91476608 22 18.52 +05 57 05.3          18.7 GVEE036K38
     K22E00E 1C2022 03 01.92494 08 22 25.25 +06 02 45.0          19.0 VVEE036033
     K22E00E 1C2022 03 01.92522 08 22 25.44 +06 02 55.0          19.2 VVEE036033
     K22E00E 1C2022 03 01.92550 08 22 25.64 +06 03 05.1          19.1 VVEE036033
     K22E00E KC2022 03 01.95930008 23 05.60 +06 29 33.8          19.2 GXEE036Y00
     K22E00E KC2022 03 01.96624408 23 10.30 +06 33 41.5          18.4 GXEE036Y00
     K22E00E KC2022 03 02.02012508 23 56.51 +07 00 28.8          18.8 GXEE036W34
     K22E00E KC2022 03 02.02920808 24 02.87 +07 05 55.1          18.3 GXEE036W34
     K22E00E KC2022 03 02.03647508 24 07.94 +07 10 15.6          18.3 GXEE036W34
     K22E00E KC2022 03 02.07861908 24 38.23 +07 35 06.1          19.1 VuEE036H21
     K22E00E KC2022 03 02.07909408 24 38.55 +07 35 23.1          18.5 VuEE036H21
     K22E00E KC2022 03 02.08099208 24 39.87 +07 36 31.2          18.5 VuEE036H21
     K22E00E KC2022 03 02.08225708 24 40.75 +07 37 16.4          18.8 VuEE036H21
     K22E00E KC2022 03 02.08542108 24 42.94 +07 39 10.2          19.1 VuEE036H21
     K22E00E HC2022 03 02.18590708 25 59.34 +08 39 51.5          18.77GVEE036G96
     K22E00E HC2022 03 02.19150408 26 03.17 +08 43 14.6                VEE036G96
     K22E00E HC2022 03 02.19710708 26 06.99 +08 46 35.7          19.01GVEE036G96
     K22E00E  C2022 03 02.23611008 26 35.86 +09 09 46.9          19.0 GVEE036654
     K22E00E  C2022 03 02.26383808 26 54.89 +09 26 22.9          18.9 GVEE036654
     K22E00E  C2022 03 02.30001708 27 19.95 +09 48 01.0          18.5 GVEE036654
     K22E00E  C2022 03 02.51133 08 30 22.45 +11 54 50.2          18.9 RrEE036P93
     K22E00E  C2022 03 02.51562 08 30 25.46 +11 57 24.5          18.9 RrEE036P93
     K22E00E  C2022 03 02.51848 08 30 27.46 +11 59 07.7          18.7 RrEE036P93
     K22E00E  C2022 03 02.51991 08 30 28.47 +11 59 59.2          18.6 RrEE036P93

Observer details:
033 Karl Schwarzschild Observatory, Tautenburg.  Observers S. Melnikov, C.
    Hoegner, U. Laux, F. Ludwig, B. Stecklum.  Measurer B. Stecklum.  1.34-m
    f/3 Schmidt + CCD.
203 GiaGa Observatory.  Observers S. Foglia, G. Galli.  Measurer G. Galli.
    0.36-m f/5.76 Schmidt-Cassegrain + CCD.
204 Schiaparelli Observatory.  Observer L. Buzzi.  0.84-m f/3.5 reflector +
    CCD.
246 Klet Observatory-KLENOT.  Observers M. Tichy, M. Janda, J. Ticha, M.
    Honkova.  Measurer M. Tichy.  1.06-m f/2.7 reflector + 2048x2048
    CCD.
568 Mauna Kea.  Observers R. Wainscoat, C. Cunningham, T. Burdullis.
    Measurers R. Weryk, R. Wainscoat.  3.6-m Canada-France-Hawaii Telescope +
    CCD.
595 Farra d'Isonzo.  Observer E. Pettarin.  0.61-m f/4.5 reflector + CCD.
654 Table Mountain Observatory, Wrightwood-PHMC.  Observers N. Evans, P. Choi,
    N. Saini, C. Zhai, R. Trahan, M. Shao.  1.0-m reflector + CCD.
F52 Pan-STARRS 2, Haleakala.  Observers J. Bulger, T. Lowe, A. Schultz, I.
    Smith, K. Chambers, T. Dukes.  Measurers K. Chambers, S. Chastel, T. de
    Boer, J. Fairlamb, H. Gao, M. Huber, C.-C. Lin, E. Magnier, Y.
    Ramanjooloo, R. Wainscoat, R. Weryk.  1.8-m Ritchey-Chretien + CCD.
G96 Mt. Lemmon Survey.  Observer E. J. Christensen.  Measurers E. J.
    Christensen, G. A. Farneth, J. B. Fazekas, D. C. Fuls, A. R. Gibbs, A. D.
    Grauer, H. Groeller, R. A. Kowalski, S. M. Larson, G. J. Leonard, D.
    Rankin, R. L. Seaman, A. Serrano, F. C. Shelly, K. W. Wierzchos.  1.5-m
    reflector + 10K CCD.
H21 Astronomical Research Observatory, Westfield.  Observer R. Holmes.
    Measurers T. Linder, R. Holmes, L. Horn.  0.76-m f/3.0 astrograph + CCD.
K38 M57 Observatory, Saltrio.  Observers G. Baj, M. Bosetti.  0.35-m f/5.6
    Ritchey-Chretien + CCD.
K74 Muensterschwarzach Observatory, Schwarzach.  Observer C. Gerhard.  0.3-m
    f/3.75 Newtonian reflector + CCD.
L01 Visnjan Observatory, Tican.  Observer K. Korlevic.  1.0-m f/2.9 reflector
    + CCD.
P93 Space Tracking and Communications Center, JAXA.  Observers T. Fujiwara, M.
    Hagino.  1.0-m f/3.0 reflector + CCD.
W34 Squirrel Valley Observatory, Columbus.  Observer R. L. Flynn.  0.36-m
    f/1.9 Schmidt-Cassegrain + CCD.
Y00 SONEAR Observatory, Oliveira.  Observer C. Jacques.  0.45-m f/2.9
    reflector + CCD.

Orbital elements:
2022 EE                                                  Earth MOID = 0.0220 AU
Epoch 2022 Jan. 21.0 TT = JDT 2459600.5                 Veres                   
M 343.30380              (2000.0)            P               Q                  
n   0.81312115     Peri.  338.80233     -0.77249038     -0.62938919             
a   1.1368396      Node   161.40590     +0.61404869     -0.77423038             
e   0.1150996      Incl.   15.35359     +0.16187282     -0.06660749             
P   1.21           H   25.51          G   0.15           U   6                  
Residuals in seconds of arc
220301 F52  0.0   0.1+    220301 K74  0.0   0.4-    220301 033  0.1-  0.3-
220301 F52  0.0   0.2+    220301 K74  0.4-  0.3+    220301 033  0.1+  0.2+
220301 F52  0.0   0.2+    220301 K74  0.5+  0.5+    220301 Y00  1.1-  0.7+
220301 F52  0.2+  0.4+    220301 203  0.1+  0.0     220301 Y00  0.2+  0.1-
220301 F52  0.1+  0.1+    220301 203  0.3-  0.2-    220302 W34  0.0   0.5-
220301 568 (0.1-  0.2-)   220301 204  0.0   0.2-    220302 W34  0.0   0.1-
220301 568 (0.1-  0.3-)   220301 203  0.1-  0.1-    220302 W34  0.1+  0.4-
220301 568  0.0   0.0     220301 204  0.0   0.3+    220302 H21  0.1-  0.1+
220301 033  0.1-  0.0     220301 204  0.1+  0.3-    220302 H21  0.2-  0.1+
220301 033  0.2-  0.4-    220301 595  0.1+  0.1+    220302 H21  0.2-  0.0
220301 033  0.5-  0.3+    220301 595  0.1-  0.3+    220302 H21  0.2-  0.4-
220301 033  0.3+  0.4+    220301 595  0.4-  0.1+    220302 H21  0.2-  0.0
220301 246  0.2-  0.4+    220301 595  0.2-  0.1-    220302 G96 (0.3-  1.4-)
220301 246  0.6-  0.5-    220301 L01  0.2-  0.0     220302 G96  0.0   0.5+
220301 246  1.0+  0.6-    220301 L01  0.0   0.1+    220302 G96  0.1+  0.1+
220301 246  3.8+  2.9-    220301 L01  0.2-  0.1+    220302 654  0.0   0.1-
220301 246  0.0   0.8-    220301 L01  0.1+  0.0     220302 654  0.0   0.1-
220301 246  0.2+  0.4+    220301 L01  0.1+  0.1+    220302 654  0.1+  0.1-
220301 246  1.3-  0.2+    220301 K38  0.1+  0.1-    220302 P93  0.1+  0.0
220301 246  1.2-  0.4-    220301 K38  0.0   0.4+    220302 P93  0.1-  0.3-
220301 246  1.0-  0.9-    220301 K38  0.0   0.1+    220302 P93  0.2-  0.3-
220301 K74  0.5-  0.0     220301 033  0.1+  0.0     220302 P93  0.2-  0.3-

Ephemeris:
2022 EE                  a,e,i = 1.14, 0.12, 15                  q = 1.0060
Date    TT    R. A. (2000) Decl.     Delta      r    Elong.  Phase     V
2022 01 31    06 05 56.3 -60 27 26   0.1424  1.0078    95.1    76.8    24.0
...
2022 02 15    06 35 44.2 -53 18 04   0.07836 1.0063   101.6    74.0    22.6
...
2022 02 23    07 15 24.7 -38 47 56   0.04466 1.0086   114.4    63.3    21.0
...
2022 03 01    08 10 54.6 -02 47 49   0.02720 1.0116   139.8    39.2    19.3
2022 03 02    08 23 27.9 +06 50 48   0.02632 1.0123   143.6    35.5    19.1
2022 03 03    08 37 07.3 +16 48 12   0.02630 1.0129   145.2    33.9    19.0
...
2022 03 09    10 19 46.2 +57 12 17   0.04086 1.0174   126.3    51.8    20.5
...
2022 03 17    12 35 17.6 +68 57 28   0.07443 1.0251   112.1    64.1    22.2
...
2022 04 01    14 19 13.9 +68 58 22   0.1410  1.0439   104.7    67.8    23.7

M. P. C. Staff               (C) Copyright 2022 MPC           M.P.E.C. 2022-E36




More information about the Iaude mailing list